Time,TemperatureF,DewpointF,PressureIn,WindDirection,WindDirectionDegrees,WindSpeedMPH,WindSpeedGustMPH,Humidity,HourlyPrecipIn,Conditions,Clouds,dailyrainin,SoftwareType,DateUTC
2013-09-16 15:49:00,54.9,50.8,29.53,SW,225,0.0,0.0,86,0.00,RA,SKC,0.00,WeatherDisplay:10.37,2013-09-16 19:49:00,
2013-09-16 15:50:00,54.9,50.8,29.53,SW,225,0.0,0.0,86,0.00,RA,SKC,0.00,WeatherDisplay:10.37,2013-09-16 19:50:00,
2013-09-16 15:55:00,59.2,43.5,29.57,East,90,1.4,1.4,56,0.00,RA,SKC,0.12,WeatherDisplay:10.37,2013-09-16 19:55:00,
2013-09-16 16:00:00,58.8,42.7,29.57,East,90,0.0,0.0,55,0.00,RA,SKC,0.12,WeatherDisplay:10.37,2013-09-16 20:00:00,
2013-09-16 16:05:00,58.6,43.4,29.57,NW,315,2.4,2.4,57,0.00,RA,SKC,0.12,WeatherDisplay:10.37,2013-09-16 20:05:00,
2013-09-16 16:10:00,58.8,41.7,29.57,NNE,22,4.7,4.7,53,0.00,RA,SKC,0.12,WeatherDisplay:10.37,2013-09-16 20:10:00,
2013-09-16 16:15:00,58.8,43.6,29.57,NNW,338,1.8,1.8,57,0.00,RA,SKC,0.12,WeatherDisplay:10.37,2013-09-16 20:15:00,
2013-09-16 16:20:00,58.6,42.0,29.57,NNE,22,3.3,3.3,54,0.00,RA,SKC,0.12,WeatherDisplay:10.37,2013-09-16 20:20:00,
2013-09-16 16:25:00,58.6,42.0,29.57,West,270,0.0,1.4,54,0.00,RA,SKC,0.12,WeatherDisplay:10.37,2013-09-16 20:25:00,
2013-09-16 16:30:00,58.5,43.3,29.58,NNE,22,1.8,1.8,57,0.00,RA,SKC,0.12,WeatherDisplay:10.37,2013-09-16 20:30:00,
2013-09-16 16:35:00,58.1,42.5,29.58,NNW,338,0.5,0.5,56,0.00,RA,SKC,0.12,WeatherDisplay:10.37,2013-09-16 20:35:00,
2013-09-16 16:40:00,57.9,41.8,29.58,NNE,22,1.2,1.2,55,0.00,RA,SKC,0.12,WeatherDisplay:10.37,2013-09-16 20:40:00,
2013-09-16 16:45:00,57.9,42.3,29.58,West,270,0.7,0.7,56,0.00,RA,SKC,0.12,WeatherDisplay:10.37,2013-09-16 20:45:00,
2013-09-16 16:50:00,57.7,42.6,29.58,NW,315,2.9,2.9,57,0.00,RA,SKC,0.12,WeatherDisplay:10.37,2013-09-16 20:50:00,
2013-09-16 16:55:00,57.6,42.0,29.59,WSW,248,0.0,0.5,56,0.00,RA,SKC,0.12,WeatherDisplay:10.37,2013-09-16 20:55:00,
2013-09-16 17:00:00,57.2,41.6,29.59,NNW,338,2.0,2.0,56,0.00,RA,SKC,0.12,WeatherDisplay:10.37,2013-09-16 21:00:00,
2013-09-16 17:05:00,57.0,42.8,29.59,WSW,248,0.5,0.5,59,0.00,RA,SKC,0.12,WeatherDisplay:10.37,2013-09-16 21:05:00,
2013-09-16 17:10:00,56.8,42.2,29.59,West,270,0.5,0.5,58,0.00,RA,SKC,0.12,WeatherDisplay:10.37,2013-09-16 21:10:00,
2013-09-16 17:15:00,56.5,41.9,29.60,WSW,248,2.2,2.2,58,0.00,RA,SKC,0.12,WeatherDisplay:10.37,2013-09-16 21:15:00,
2013-09-16 17:20:00,56.3,41.7,29.60,NE,45,0.0,1.2,58,0.00,RA,SKC,0.12,WeatherDisplay:10.37,2013-09-16 21:20:00,
2013-09-16 17:25:00,55.8,41.2,29.60,SW,225,0.7,0.7,58,0.00,RA,SKC,0.12,WeatherDisplay:10.37,2013-09-16 21:25:00,
2013-09-16 17:30:00,55.6,41.0,29.60,West,270,0.0,0.0,58,0.00,RA,SKC,0.12,WeatherDisplay:10.37,2013-09-16 21:30:00,
2013-09-16 17:35:00,55.4,41.3,29.61,WSW,248,0.5,0.5,59,0.00,RA,SKC,0.12,WeatherDisplay:10.37,2013-09-16 21:35:00,
2013-09-16 17:40:00,55.0,40.5,29.61,SW,225,0.2,0.2,58,0.00,RA,SKC,0.12,WeatherDisplay:10.37,2013-09-16 21:40:00,
2013-09-16 17:45:00,55.0,41.4,29.61,SW,225,2.9,2.9,60,0.00,RA,SKC,0.12,WeatherDisplay:10.37,2013-09-16 21:45:00,
2013-09-16 17:50:00,54.7,40.6,29.62,West,270,0.0,0.5,59,0.00,RA,SKC,0.12,WeatherDisplay:10.37,2013-09-16 21:50:00,
2013-09-16 17:55:00,54.3,40.7,29.62,WSW,248,2.2,2.2,60,0.00,RA,SKC,0.12,WeatherDisplay:10.37,2013-09-16 21:55:00,
2013-09-16 18:00:00,54.1,40.1,29.62,West,270,1.2,1.2,59,0.00,RA,SKC,0.12,WeatherDisplay:10.37,2013-09-16 22:00:00,
2013-09-16 18:05:00,54.0,40.4,29.63,West,270,0.0,0.0,60,0.00,RA,SKC,0.12,WeatherDisplay:10.37,2013-09-16 22:05:00,
2013-09-16 18:10:00,53.6,40.5,29.63,WSW,248,0.0,0.0,61,0.00,RA,SKC,0.12,WeatherDisplay:10.37,2013-09-16 22:10:00,
2013-09-16 18:15:00,53.2,40.1,29.63,West,270,0.0,0.0,61,0.00,RA,SKC,0.12,WeatherDisplay:10.37,2013-09-16 22:15:00,
2013-09-16 18:20:00,52.9,39.8,29.63,West,270,0.0,0.7,61,0.00,RA,SKC,0.12,WeatherDisplay:10.37,2013-09-16 22:20:00,
2013-09-16 18:25:00,52.7,40.0,29.64,WSW,248,0.5,0.5,62,0.00,RA,SKC,0.12,WeatherDisplay:10.37,2013-09-16 22:25:00,
2013-09-16 18:30:00,52.2,39.9,29.64,WNW,292,0.9,0.9,63,0.00,RA,SKC,0.12,WeatherDisplay:10.37,2013-09-16 22:30:00,
2013-09-16 18:35:00,51.8,39.6,29.64,NNW,338,0.2,0.2,63,0.00,RA,SKC,0.12,WeatherDisplay:10.37,2013-09-16 22:35:00,
2013-09-16 18:40:00,51.4,39.3,29.65,WNW,292,0.7,0.7,63,0.00,RA,SKC,0.12,WeatherDisplay:10.37,2013-09-16 22:40:00,
2013-09-16 18:45:00,50.9,38.3,29.65,NNE,22,0.5,0.5,62,0.00,RA,SKC,0.12,WeatherDisplay:10.37,2013-09-16 22:45:00,
2013-09-16 18:50:00,50.5,37.6,29.65,NNW,338,0.0,0.5,61,0.00,RA,SKC,0.12,WeatherDisplay:10.37,2013-09-16 22:50:00,
2013-09-16 18:55:00,50.4,38.2,29.65,North,0,0.0,0.0,63,0.00,RA,SKC,0.12,WeatherDisplay:10.37,2013-09-16 22:55:00,
2013-09-16 19:00:00,50.0,37.9,29.65,NNW,338,0.0,0.0,63,0.00,RA,SKC,0.12,WeatherDisplay:10.37,2013-09-16 23:00:00,
2013-09-16 19:05:00,49.8,37.7,29.65,NW,315,0.7,0.7,63,0.00,RA,SKC,0.12,WeatherDisplay:10.37,2013-09-16 23:05:00,
2013-09-16 19:10:00,49.6,38.0,29.66,SSW,202,2.0,2.0,64,0.00,RA,SKC,0.12,WeatherDisplay:10.37,2013-09-16 23:10:00,
2013-09-16 19:15:00,49.5,37.8,29.66,NW,315,0.0,0.0,64,0.00,RA,SKC,0.12,WeatherDisplay:10.37,2013-09-16 23:15:00,
2013-09-16 19:20:00,49.1,37.4,29.66,SW,225,0.0,0.2,64,0.00,RA,SKC,0.12,WeatherDisplay:10.37,2013-09-16 23:20:00,
2013-09-16 19:25:00,48.6,38.1,29.67,NNE,22,1.2,1.2,67,0.00,RA,SKC,0.12,WeatherDisplay:10.37,2013-09-16 23:25:00,
2013-09-16 19:30:00,48.2,37.8,29.67,ESE,112,0.0,0.0,67,0.00,RA,SKC,0.12,WeatherDisplay:10.37,2013-09-16 23:30:00,
2013-09-16 19:36:00,47.8,37.8,29.68,East,90,0.5,0.5,68,0.00,RA,SKC,0.12,WeatherDisplay:10.37,2013-09-16 23:36:00,
2013-09-16 19:41:00,47.3,37.6,29.68,East,90,0.2,0.2,69,0.00,RA,SKC,0.12,WeatherDisplay:10.37,2013-09-16 23:41:00,
2013-09-16 19:46:00,46.9,37.7,29.68,East,90,0.5,0.5,70,0.00,RA,SKC,0.12,WeatherDisplay:10.37,2013-09-16 23:46:00,
2013-09-16 19:51:00,46.8,37.1,29.68,NW,315,0.0,0.0,69,0.00,RA,SKC,0.12,WeatherDisplay:10.37,2013-09-16 23:51:00,
2013-09-16 19:56:00,46.6,37.0,29.69,NW,315,0.0,0.0,69,0.00,RA,SKC,0.12,WeatherDisplay:10.37,2013-09-16 23:56:00,
2013-09-16 20:01:00,46.4,37.5,29.69,SSW,202,0.0,0.0,71,0.00,RA,SKC,0.12,WeatherDisplay:10.37,2013-09-17 00:01:00,
2013-09-16 20:06:00,46.0,37.2,29.69,SSW,202,0.0,0.0,71,0.00,RA,SKC,0.12,WeatherDisplay:10.37,2013-09-17 00:06:00,
2013-09-16 20:11:00,45.7,37.2,29.69,SSE,158,0.0,0.0,72,0.00,RA,SKC,0.12,WeatherDisplay:10.37,2013-09-17 00:11:00,
2013-09-16 20:16:00,45.3,36.8,29.70,NNE,22,0.7,0.7,72,0.00,RA,SKC,0.12,WeatherDisplay:10.37,2013-09-17 00:16:00,
2013-09-16 20:21:00,45.3,36.8,29.70,SW,225,0.0,0.0,72,0.00,RA,SKC,0.12,WeatherDisplay:10.37,2013-09-17 00:21:00,
2013-09-16 20:26:00,45.0,37.2,29.70,North,0,0.0,0.0,74,0.00,RA,SKC,0.12,WeatherDisplay:10.37,2013-09-17 00:26:00,
2013-09-16 20:31:00,45.0,37.2,29.71,ESE,112,0.0,0.2,74,0.00,RA,SKC,0.12,WeatherDisplay:10.37,2013-09-17 00:31:00,
2013-09-16 20:36:00,44.8,37.0,29.71,ESE,112,0.0,0.0,74,0.00,RA,SKC,0.12,WeatherDisplay:10.37,2013-09-17 00:36:00,
2013-09-16 20:41:00,44.8,37.0,29.71,ESE,112,0.2,0.2,74,0.00,RA,SKC,0.12,WeatherDisplay:10.37,2013-09-17 00:41:00,
2013-09-16 20:46:00,44.8,37.0,29.71,ESE,112,0.2,0.2,74,0.00,RA,SKC,0.12,WeatherDisplay:10.37,2013-09-17 00:46:00,
2013-09-16 20:51:00,44.2,36.5,29.71,ESE,112,0.0,0.0,74,0.00,RA,SKC,0.12,WeatherDisplay:10.37,2013-09-17 00:51:00,
2013-09-16 20:56:00,44.1,36.3,29.71,ESE,112,0.0,0.0,74,0.00,RA,SKC,0.12,WeatherDisplay:10.37,2013-09-17 00:56:00,
2013-09-16 21:01:00,43.7,36.3,29.71,ESE,112,0.0,0.0,75,0.00,RA,SKC,0.00,WeatherDisplay:10.37,2013-09-17 01:01:00,
2013-09-16 21:06:00,43.3,36.3,29.72,ESE,112,0.0,0.0,76,0.00,RA,SKC,0.00,WeatherDisplay:10.37,2013-09-17 01:06:00,
2013-09-16 21:11:00,43.2,36.1,29.72,ESE,112,0.0,0.0,76,0.00,RA,SKC,0.00,WeatherDisplay:10.37,2013-09-17 01:11:00,
2013-09-16 21:16:00,43.3,36.3,29.72,ESE,112,0.0,0.0,76,0.00,RA,SKC,0.00,WeatherDisplay:10.37,2013-09-17 01:16:00,
2013-09-16 21:21:00,43.2,36.1,29.73,ESE,112,0.0,0.0,76,0.00,RA,SKC,0.00,WeatherDisplay:10.37,2013-09-17 01:21:00,
2013-09-16 21:26:00,42.8,35.8,29.73,ESE,112,0.0,0.0,76,0.00,RA,SKC,0.00,WeatherDisplay:10.37,2013-09-17 01:26:00,
2013-09-16 21:31:00,42.8,35.8,29.73,WSW,248,0.0,0.0,76,0.00,RA,SKC,0.00,WeatherDisplay:10.37,2013-09-17 01:31:00,
2013-09-16 21:36:00,42.8,35.8,29.74,NE,45,0.0,0.0,76,0.00,RA,SKC,0.00,WeatherDisplay:10.37,2013-09-17 01:36:00,
2013-09-16 21:41:00,42.4,35.7,29.74,NE,45,0.2,0.2,77,0.00,RA,SKC,0.00,WeatherDisplay:10.37,2013-09-17 01:41:00,
2013-09-16 21:46:00,42.4,35.7,29.74,NE,45,0.0,0.0,77,0.00,RA,SKC,0.00,WeatherDisplay:10.37,2013-09-17 01:46:00,
2013-09-16 21:51:00,42.4,35.7,29.74,NE,45,0.0,0.0,77,0.00,RA,SKC,0.00,WeatherDisplay:10.37,2013-09-17 01:51:00,
2013-09-16 21:56:00,42.3,35.6,29.74,NE,45,0.0,0.0,77,0.00,RA,SKC,0.00,WeatherDisplay:10.37,2013-09-17 01:56:00,
2013-09-16 22:01:00,42.1,35.4,29.75,NE,45,0.0,0.0,77,0.00,RA,SKC,0.00,WeatherDisplay:10.37,2013-09-17 02:01:00,
2013-09-16 22:06:00,41.5,35.2,29.75,NE,45,0.0,0.0,78,0.00,RA,SKC,0.00,WeatherDisplay:10.37,2013-09-17 02:06:00,
2013-09-16 22:11:00,41.4,35.3,29.76,NE,45,0.0,0.0,79,0.00,RA,SKC,0.00,WeatherDisplay:10.37,2013-09-17 02:11:00,
2013-09-16 22:16:00,41.4,35.3,29.76,NE,45,0.0,0.0,79,0.00,RA,SKC,0.00,WeatherDisplay:10.37,2013-09-17 02:16:00,
2013-09-16 22:21:00,41.2,35.5,29.76,NE,45,0.0,0.2,80,0.00,RA,SKC,0.00,WeatherDisplay:10.37,2013-09-17 02:21:00,
2013-09-16 22:26:00,40.8,34.8,29.76,NE,45,0.0,0.0,79,0.00,RA,SKC,0.00,WeatherDisplay:10.37,2013-09-17 02:26:00,
2013-09-16 22:31:00,40.6,35.0,29.76,NE,45,0.0,0.0,80,0.00,RA,SKC,0.00,WeatherDisplay:10.37,2013-09-17 02:31:00,
2013-09-16 22:36:00,40.5,34.8,29.76,ENE,68,0.0,0.0,80,0.00,RA,SKC,0.00,WeatherDisplay:10.37,2013-09-17 02:36:00,
2013-09-16 22:41:00,40.5,34.8,29.76,ENE,68,0.5,0.5,80,0.00,RA,SKC,0.00,WeatherDisplay:10.37,2013-09-17 02:41:00,
2013-09-16 22:46:00,40.3,34.9,29.77,ENE,68,0.0,0.0,81,0.00,RA,SKC,0.00,WeatherDisplay:10.37,2013-09-17 02:46:00,
2013-09-16 22:51:00,40.3,34.9,29.77,ENE,68,0.2,0.2,81,0.00,RA,SKC,0.00,WeatherDisplay:10.37,2013-09-17 02:51:00,
2013-09-16 22:56:00,40.1,34.7,29.77,ENE,68,0.0,0.0,81,0.00,RA,SKC,0.00,WeatherDisplay:10.37,2013-09-17 02:56:00,